Cloud_Cover
100 100 100 100 100 100 100 100 62 79 100 46 5 86 100 100 98 86 87 2 1 0 4 0 0 0 0 0 3 0 0 0 4 63 5 10 99 100 100 100 100 87 95 100 39
100 100 100 100 100 100 100 91 45 11 81 60 5 5 91 100 100 100 50 11 31 1 1 0 0 1 20 14 4 5 0 12 98 8 36 46 92 100 100 100 55 86 100 100 100
78 100 100 100 100 100 100 100 93 5 93 5 5 5 98 100 100 100 48 21 100 0 5 0 0 0 5 5 25 0 0 24 6 5 30 5 60 69 97 54 53 32 8 97 86
100 92 100 100 100 100 100 100 100 100 27 70 58 5 92 100 100 100 63 99 96 5 5 3 0 0 4 45 14 0 0 87 22 5 8 5 12 7 91 95 100 47 57 92 24
99 100 100 100 100 100 88 100 100 100 100 100 100 4 54 100 100 49 79 96 98 78 5 0 0 0 4 8 56 0 0 5 32 2 2 12 8 5 2 6 9 50 100 98 100
63 100 100 100 100 100 100 100 51 59 100 100 100 97 89 100 85 100 82 100 100 100 67 12 0 0 0 0 1 0 0 3 12 59 6 7 64 6 8 5 39 18 93 94 87
97 43 100 100 100 100 100 100 100 70 100 100 100 100 100 100 93 100 85 97 100 45 100 5 5 0 4 0 1 0 4 5 17 0 2 91 47 13 2 63 100 100 100 100 80
100 86 58 90 100 100 100 100 100 100 100 100 100 100 54 100 100 100 100 89 100 100 45 64 5 5 35 0 2 5 0 0 0 0 0 12 2 5 2 2 0 0 0 0 0
100 100 84 5 100 100 100 100 100 100 100 100 100 100 96 100 100 100 100 84 100 100 32 11 82 5 100 0 12 59 2 0 2 4 8 7 14 6 9 35 6 1 1 0 0
100 100 92 7 8 100 100 100 100 100 100 100 93 95 100 100 100 100 100 100 100 100 26 61 100 70 100 5 79 64 14 0 2 8 36 5 6 30 100 100 100 94 40 14 4
100 100 100 36 5 5 68 100 100 100 100 100 98 44 100 100 74 97 100 100 100 100 100 100 100 85 100 59 25 26 34 69 98 4 16 58 5 46 89 100 100 100 100 65 76
100 100 100 100 36 33 5 50 54 74 99 97 97 74 100 100 100 100 81 100 100 100 100 100 100 100 65 100 34 7 100 97 99 81 39 24 5 5 5 19 48 74 99 100 100
100 100 100 100 100 68 41 28 5 18 95 100 100 90 100 100 100 100 100 100 100 100 100 100 99 88 100 100 100 99 100 100 100 97 42 100 26 5 1 0 0 5 7 61 100
100 100 100 100 99 7 10 17 84 76 42 100 100 100 100 100 100 100 100 100 100 100 100 68 98 100 100 100 100 100 100 100 100 100 98 100 100 77 4 5 2 0 2 5 53
100 100 100 100 100 47 16 6 8 43 5 13 100 100 100 100 100 100 78 100 100 100 99 58 100 100 100 92 100 100 100 100 100 100 100 100 100 100 94 68 6 5 5 5 5
100 100 91 36 70 20 46 8 5 0 28 7 50 100 100 100 100 100 100 100 100 100 98 100 100 100 100 89 100 100 100 100 100 100 100 100 100 100 90 100 100 5 98 68 43
100 100 100 20 24 5 45 56 13 5 5 54 100 100 100 100 100 100 100 100 100 100 100 100 100 100 100 100 91 100 93 100 100 100 100 100 100 100 100 100 100 100 77 100 100
100 100 100 16 55 6 62 10 100 17 5 53 98 100 100 100 100 100 100 100 100 100 100 100 100 100 100 100 99 100 100 100 100 100 100 100 100 100 100 100 100 100 100 100 100
100 100 99 90 14 84 5 5 8 42 19 6 96 100 100 100 100 100 100 100 100 100 100 100 100 100 100 100 100 100 100 100 100 100 100 100 100 100 100 100 100 100 100 100 100
100 100 95 100 76 32 78 5 5 0 0 5 24 100 100 100 100 100 100 100 100 100 100 100 100 100 100 100 100 100 100 100 100 100 100 100 100 100 100 100 100 100 100 100 100
100 100 100 100 100 80 13 5 5 0 0 0 9 100 100 100 100 100 100 100 100 100 100 100 100 100 100 100 100 100 100 100 100 100 100 100 100 100 100 100 100 100 100 100 100
100 100 95 100 100 45 6 5 5 5 0 0 0 5 74 100 96 100 100 100 100 100 100 100 100 100 100 100 100 100 100 100 100 100 100 100 100 100 100 100 100 100 100 100 100
100 100 100 100 100 97 52 5 5 4 0 0 0 0 0 100 100 100 100 100 100 100 100 100 100 100 100 100 100 100 100 100 100 100 100 91 100 100 100 100 100 100 100 100 100
100 100 100 100 100 100 75 45 5 0 2 0 0 0 0 95 100 98 93 100 100 100 100 100 100 100 100 100 100 100 100 100 100 100 100 100 100 100 100 100 100 100 100 100 100
100 100 99 100 100 90 100 91 99 5 0 0 0 0 3 16 100 100 100 100 100 99 100 100 100 100 100 100 100 100 100 100 100 100 100 100 100 100 97 45 100 96 100 100 100
100 100 100 62 100 100 100 100 38 100 5 3 0 5 58 5 20 100 100 100 99 100 100 100 100 100 100 100 100 100 100 100 100 100 100 100 100 100 100 100 100 100 100 100 100
100 100 100 92 100 100 100 98 12 80 17 2 4 5 5 5 5 5 39 100 100 94 9 53 82 100 100 100 100 100 100 100 100 100 100 100 100 100 100 100 100 100 100 100 100